GW0263 Weather Reports


time (UTC)temp
C
wind
direction
speed
KPH
gust
KPH
rain 1hr
cm
rain 24hr
cm
rain mn
cm
humidity
%
barometer
mb
20260504034541 10 0 0.0 0.0 0.00 0.00 0.00 69 1019.7
20260504033034 10 0 0.0 0.0 0.00 0.00 0.00 65 1019.7
20260504031542 10 0 0.0 0.0 0.00 0.00 0.00 62 1019.6
20260504030039 10 0 0.0 0.0 0.00 0.00 0.00 63 1019.6
20260504024530 11 0 0.0 0.0 0.00 0.00 0.00 64 1019.4
20260504023036 11 0 0.0 0.0 0.00 0.00 0.00 57 1019.3
20260504021532 12 0 0.0 0.0 0.00 0.00 0.00 55 1019.2
20260504020035 12 0 0.0 0.0 0.00 0.00 0.00 57 1019.1
20260504014533 12 0 0.0 0.0 0.00 0.00 0.00 53 1019.0
20260504013032 13 0 0.0 0.0 0.00 0.00 0.00 54 1018.9
20260504011530 13 0 0.0 0.0 0.00 0.00 0.00 53 1018.5
20260504010038 14 0 0.0 0.0 0.00 0.00 0.00 49 1018.4
20260504004532 15 0 0.0 0.0 0.00 0.00 0.00 45 1018.3
20260504003031 15 0 0.0 0.0 0.00 0.00 0.00 44 1018.2
20260504001530 16 0 0.0 0.0 0.00 0.00 0.00 43 1018.1
20260504000031 16 0 0.0 0.0 0.00 0.00 0.00 41 1018.1
20260503234533 17 0 0.0 0.0 0.00 0.00 0.00 41 1017.9
20260503233029 17 0 0.0 0.0 0.00 0.00 0.00 40 1017.9
20260503231543 17 0 0.0 0.0 0.00 0.00 0.00 38 1017.9
20260503230033 18 0 0.0 0.0 0.00 0.00 0.00 36 1017.8
20260503224532 18 0 0.0 0.0 0.00 0.00 0.00 32 1017.9
20260503223033 19 0 0.0 0.0 0.00 0.00 0.00 30 1018.1
20260503221536 20 0 0.0 0.0 0.00 0.00 0.00 29 1018.1
20260503220037 20 0 0.0 0.0 0.00 0.00 0.00 27 1018.1
20260503214541 21 0 0.0 0.0 0.00 0.00 0.00 27 1018.0
20260503213051 21 0 0.0 0.0 0.00 0.00 0.00 28 1018.1
20260503211538 22 0 0.0 0.0 0.00 0.00 0.00 28 1018.2
20260503210035 22 0 0.0 0.0 0.00 0.00 0.00 29 1018.4
20260503204549 23 0 0.0 0.0 0.00 0.00 0.00 28 1018.4
20260503203035 23 0 0.0 0.0 0.00 0.00 0.00 27 1018.6
20260503201534 23 0 0.0 0.0 0.00 0.00 0.00 27 1018.8
20260503200030 22 0 0.0 0.0 0.00 0.00 0.00 29 1019.0
20260503194531 23 0 0.0 0.0 0.00 0.00 0.00 30 1019.4
20260503193032 22 0 0.0 0.0 0.00 0.00 0.00 28 1019.6
20260503191539 22 0 0.0 0.0 0.00 0.00 0.00 27 1019.9
20260503190034 22 0 0.0 0.0 0.00 0.00 0.00 25 1020.0
20260503184535 22 0 0.0 0.0 0.00 0.00 0.00 31 1020.2
20260503183042 21 0 0.0 0.0 0.00 0.00 0.00 27 1020.3
20260503181532 21 0 0.0 0.0 0.00 0.00 0.00 30 1020.4
20260503180035 21 0 0.0 0.0 0.00 0.00 0.00 34 1020.7
20260503174538 20 0 0.0 0.0 0.00 0.00 0.00 32 1020.7
20260503173032 20 0 0.0 0.0 0.00 0.00 0.00 35 1020.8
20260503171535 20 0 0.0 0.0 0.00 0.00 0.00 34 1021.1
20260503081544 2 0 0.0 0.0 0.00 0.00 0.00 89 1019.6
20260503071551 3 0 0.0 0.0 0.00 0.00 0.00 88 1019.0
20260503054545 4 0 0.0 0.0 0.00 0.00 0.00 87 1019.2
20260503053034 5 0 0.0 0.0 0.00 0.00 0.00 86 1019.2
20260503051542 5 0 0.0 0.0 0.00 0.00 0.00 85 1019.1
20260503050030 5 0 0.0 0.0 0.00 0.00 0.00 84 1019.1
20260503044530 5 0 0.0 0.0 0.00 0.00 0.00 84 1019.1
20260503043030 5 0 0.0 0.0 0.00 0.00 0.00 83 1019.0
20260503041533 6 0 0.0 0.0 0.00 0.00 0.00 82 1018.7
20260503040035 6 0 0.0 0.0 0.00 0.00 0.00 81 1018.7